Flag for U.S.A. Weather past 2 weeks in Sitka, Alaska, U.S.A.

49 °F


Feels Like: 43 °F
Forecast: 42 / 48 °F
Wind: 17 mph from Southeast

Location: Sitka Airport

Current Time: Nov 29, 2015 at 1:19:45 PM

Latest Report: Nov 29, 2015 at 11:53 AM

Visibility: 10 mi

Pressure: 29.73 "Hg

Humidity: 69%

Dew point: 39 °F

Location of SitkaLocation

Historic Weather in Sitka — Graph


Sitka temperature yesterday

Maximum temperature yesterday: 48 °F (at 3:53 PM)
Minimum temperature yesterday: 44 °F (at 5:53 AM)
Average temperature yesterday: 46 °F

Past Weeks' High & Low Weather Summary

High49 °F (Nov 21, 2:53 AM)100% (Nov 14, 10:53 AM)30.52 "Hg (Nov 14, 10:53 AM)
Low29 °F (Nov 23, 6:53 AM)57% (Nov 17, 1:53 PM)29.08 "Hg (Nov 16, 10:53 AM)
Average39 °F86%29.99 "Hg
* Reported Nov 14 10:53 AM — Nov 29 10:53 AM, Sitka, Weather by CustomWeather, © 2015

Note: Actual official high and low records may vary slightly from our data, if they occured in-between our weather recording intervals... More about our weather records


Sitka weather history for previous 24 hours

Time TempWeatherWind HumidityBarometerVisibility
10:53 AM
Sun, Nov 29
48 °FLight rain. Overcast.16 mph71%29.75 "Hg10 mi
9:53 AM49 °FLight rain. Overcast.18 mph71%29.75 "Hg10 mi
8:53 AM47 °FLight rain. Mostly cloudy.14 mph80%29.75 "Hg10 mi
7:53 AM46 °FLight rain. Overcast.15 mph86%29.76 "Hg9 mi
6:53 AM47 °FLight rain. Overcast.18 mph80%29.76 "Hg10 mi
5:53 AM47 °FLight rain. Overcast.23 mph77%29.75 "Hg10 mi
4:53 AM48 °FLight rain. Overcast.22 mph77%29.76 "Hg10 mi
3:53 AM48 °FLight rain. Overcast.18 mph77%29.76 "Hg10 mi
2:53 AM48 °FLight rain. Overcast.20 mph74%29.78 "Hg10 mi
1:53 AM48 °FLight rain. Overcast.22 mph77%29.78 "Hg10 mi
12:53 AM48 °FLight rain. Overcast.20 mph77%29.79 "Hg10 mi
11:53 PM
Sat, Nov 28
47 °FLight rain. Overcast.21 mph80%29.80 "Hg10 mi
10:53 PM48 °FLight rain. Overcast.25 mph77%29.80 "Hg10 mi
8:53 PM47 °FRain. Overcast.22 mph83%29.80 "Hg5 mi
7:53 PM47 °FRain. Overcast.22 mph83%29.79 "Hg6 mi
6:53 PM47 °FLight rain. Overcast.24 mph80%29.79 "Hg6 mi
5:53 PM47 °FRain. Overcast.22 mph80%29.80 "Hg6 mi
4:53 PM47 °FLight rain. Overcast.23 mph80%29.79 "Hg7 mi
3:53 PM48 °FLight rain. Overcast.22 mph77%29.79 "Hg8 mi
2:53 PM47 °FLight rain. Overcast.23 mph77%29.80 "Hg9 mi
1:53 PM47 °FLight rain. Overcast.21 mph77%29.81 "Hg8 mi
Weather by CustomWeather, © 2015

See weather overviewHow to use our weather pages